This is the latest recevied weather packets stored in our database for station/object HS5BOG-13. If no packets are shown the sender has not sent any weather packets the latest 10 day(s).
| Time | Temp. | Humidity | Pressure | Rain* | Wind** | Luminosity | Snow |
|---|---|---|---|---|---|---|---|
| 1788350614 | 28.33° C | 99% | 991 hPa | - | - | - | - |
| 1788350009 | 28.33° C | 99% | 990.9 hPa | - | - | - | - |
| 1788349403 | 28.89° C | 97% | 990.7 hPa | - | - | - | - |
| 1788348798 | 28.33° C | 98% | 990.5 hPa | - | - | - | - |
| 1788348192 | 28.33° C | 97% | 990.3 hPa | - | - | - | - |
| 1788347587 | 28.89° C | 94% | 990 hPa | - | - | - | - |
| 1788346981 | 28.89° C | 93% | 989.8 hPa | - | - | - | - |
| 1788346376 | 28.89° C | 94% | 989.7 hPa | - | - | - | - |
| 1788345770 | 28.89° C | 94% | 990 hPa | - | - | - | - |
| 1788345164 | 28.89° C | 96% | 989.8 hPa | - | - | - | - |
| 1788344559 | 28.33° C | 10% | - | - | - | - | - |
| 1788343953 | 28.89° C | 99% | 989.8 hPa | - | - | - | - |
| 1788343348 | 28.89° C | 10% | - | - | - | - | - |
| 1788342742 | 29.44° C | 99% | 989.7 hPa | - | - | - | - |
| 1788342137 | 30° C | 94% | 989.3 hPa | - | - | - | - |
| 1788341534 | 30.56° C | 85% | 988.8 hPa | - | - | - | - |
| 1788340926 | 31.11° C | 79% | 988.5 hPa | - | - | - | - |
| 1788340320 | 31.11° C | 78% | 988.3 hPa | - | - | - | - |
| 1788339715 | 31.11° C | 76% | 988.4 hPa | - | - | - | - |
| 1788339109 | 31.11° C | 76% | 988.2 hPa | - | - | - | - |
| 1788338504 | 31.11° C | 77% | 988.1 hPa | - | - | - | - |
| 1788337898 | 31.11° C | 76% | 988.3 hPa | - | - | - | - |
| 1788337293 | 31.11° C | 77% | 988.3 hPa | - | - | - | - |
| 1788336687 | 31.11° C | 76% | 988.7 hPa | - | - | - | - |
| 1788336082 | 31.11° C | 78% | 988.8 hPa | - | - | - | - |
* Rain since midnight (hover to see other rain measurements)
** Current wind speed in m/s (hover to see current wind gust speed)